KF0ZH Weather Reports


time (UTC)temp
C
wind
direction
speed
KPH
gust
KPH
rain 1hr
cm
rain 24hr
cm
rain mn
cm
humidity
%
barometer
mb
20210916105102 20 177 20.9 24.1 0.00 0.00 0.00 71 1009.9
20210916104602 20 203 16.1 24.1 0.00 0.00 0.00 72 1009.9
20210916104101 20 171 0.0 9.7 0.00 0.00 0.00 72 1009.9
20210916103602 20 225 6.4 19.3 0.00 0.00 0.00 72 1010.0
20210916103135 20 195 0.0 19.3 0.00 0.00 0.00 72 1009.9
20210916103101 20 195 0.0 19.3 0.00 0.00 0.00 72 1009.9
20210916102601 20 177 0.0 12.9 0.00 0.00 0.00 72 1010.0
20210916102101 20 168 0.0 12.9 0.00 0.00 0.00 72 1010.0
20210916101601 20 160 19.3 19.3 0.00 0.00 0.00 72 1010.0
20210916101101 20 156 0.0 14.5 0.00 0.00 0.00 72 1010.0
20210916100601 20 175 17.7 24.1 0.00 0.00 0.00 72 1010.0
20210916100101 20 177 14.5 19.3 0.00 0.00 0.00 72 1010.2
20210916095601 20 165 12.9 14.5 0.00 0.00 0.00 72 1010.1
20210916095101 20 149 0.0 14.5 0.00 0.00 0.00 72 1010.1
20210916094602 20 136 8.0 12.9 0.00 0.00 0.00 72 1010.1
20210916094101 20 170 14.5 25.7 0.00 0.00 0.00 72 1010.1
20210916093601 20 189 4.8 12.9 0.00 0.00 0.00 72 1010.2
20210916093102 20 158 0.0 12.9 0.00 0.00 0.00 72 1010.3
20210916092602 20 181 0.0 9.7 0.00 0.00 0.00 72 1010.3
20210916092101 20 185 6.4 16.1 0.00 0.00 0.00 72 1010.2
20210916091601 20 219 0.0 29.0 0.00 0.00 0.00 71 1010.2
20210916091102 20 168 11.3 12.9 0.00 0.00 0.00 71 1010.2
20210916090601 20 167 12.9 19.3 0.00 0.00 0.00 71 1010.3
20210916090102 20 160 11.3 33.8 0.00 0.00 0.00 71 1010.3
20210916085602 20 171 0.0 12.9 0.00 0.00 0.00 71 1010.3
20210916085102 20 144 0.0 24.1 0.00 0.00 0.00 71 1010.3
20210916084601 20 165 14.5 16.1 0.00 0.00 0.00 71 1010.3
20210916084101 20 192 0.0 19.3 0.00 0.00 0.00 71 1010.2
20210916083602 20 153 12.9 16.1 0.00 0.00 0.00 71 1010.3
20210916083101 20 184 12.9 22.5 0.00 0.00 0.00 70 1010.3
20210916082645 20 251 16.1 20.9 0.00 0.00 0.00 70 1010.4
20210916082601 20 251 16.1 20.9 0.00 0.00 0.00 70 1010.4
20210916082101 20 147 17.7 17.7 0.00 0.00 0.00 71 1010.6
20210916081601 20 182 0.0 19.3 0.00 0.00 0.00 71 1010.5
20210916081101 20 241 3.2 8.0 0.00 0.00 0.00 71 1010.6
20210916080601 20 175 0.0 3.2 0.00 0.00 0.00 72 1010.7
20210916080102 20 201 0.0 9.7 0.00 0.00 0.00 72 1010.7
20210916075601 20 251 0.0 0.0 0.00 0.00 0.00 72 1010.8
20210916075102 20 177 0.0 0.0 0.00 0.00 0.00 72 1010.8
20210916074601 20 223 0.0 9.7 0.00 0.00 0.00 72 1010.9
20210916074102 20 151 0.0 8.0 0.00 0.00 0.00 72 1010.9
20210916073602 20 195 4.8 9.7 0.00 0.00 0.00 72 1011.0
20210916073102 20 191 4.8 14.5 0.00 0.00 0.00 72 1011.0
20210916072601 20 178 8.0 11.3 0.00 0.00 0.00 72 1011.1
20210916072102 20 212 6.4 19.3 0.00 0.00 0.00 72 1011.0
20210916071601 20 149 17.7 17.7 0.00 0.00 0.00 71 1011.1
20210916071101 20 112 3.2 11.3 0.00 0.00 0.00 71 1011.1
20210916070602 20 220 0.0 11.3 0.00 0.00 0.00 71 1011.1
20210916070102 20 182 0.0 20.9 0.00 0.00 0.00 71 1011.1
20210916065634 20 177 0.0 12.9 0.00 0.00 0.00 70 1011.1
20210916065603 20 177 0.0 12.9 0.00 0.00 0.00 70 1011.1
20210916065102 20 189 0.0 12.9 0.00 0.00 0.00 70 1011.1
20210916064602 20 188 8.0 8.0 0.00 0.00 0.00 70 1011.0
20210916064101 20 182 0.0 3.2 0.00 0.00 0.00 69 1011.0
20210916063602 20 189 0.0 19.3 0.00 0.00 0.00 69 1011.0
20210916063102 20 163 14.5 16.1 0.00 0.00 0.00 68 1010.9
20210916062601 20 172 11.3 16.1 0.00 0.00 0.00 68 1010.9
20210916062102 20 168 6.4 14.5 0.00 0.00 0.00 68 1011.0
20210916061602 20 151 6.4 33.8 0.00 0.00 0.00 67 1011.0
20210916061101 21 202 0.0 8.0 0.00 0.00 0.00 67 1011.1
20210916060601 21 150 11.3 14.5 0.00 0.00 0.00 67 1011.1
20210916060101 21 157 0.0 16.1 0.00 0.00 0.00 66 1011.1
20210916055601 21 212 11.3 27.4 0.00 0.00 0.00 66 1011.2
20210916055101 21 208 8.0 16.1 0.00 0.00 0.00 66 1011.4
20210916054604 21 201 6.4 24.1 0.00 0.00 0.00 65 1011.4
20210916054102 21 180 8.0 20.9 0.00 0.00 0.00 65 1011.5
20210916053601 21 156 8.0 19.3 0.00 0.00 0.00 64 1011.6
20210916053101 21 147 0.0 24.1 0.00 0.00 0.00 64 1011.5
20210916052601 21 156 9.7 30.6 0.00 0.00 0.00 64 1011.6
20210916052102 21 195 8.0 19.3 0.00 0.00 0.00 64 1011.6
20210916051601 21 216 8.0 19.3 0.00 0.00 0.00 64 1011.6
20210916051101 21 95 0.0 0.0 0.00 0.00 0.00 65 1011.5
20210916050601 20 164 9.7 17.7 0.00 0.00 0.00 66 1011.5
20210916050101 20 161 8.0 19.3 0.00 0.00 0.00 66 1011.5
20210916045601 20 184 11.3 16.1 0.00 0.00 0.00 66 1011.6
20210916045101 20 153 0.0 8.0 0.00 0.00 0.00 67 1011.6
20210916044601 20 130 0.0 6.4 0.00 0.00 0.00 67 1011.8
20210916044102 20 157 0.0 0.0 0.00 0.00 0.00 67 1011.8
20210916043601 20 151 9.7 11.3 0.00 0.00 0.00 66 1011.9
20210916043101 20 198 0.0 0.0 0.00 0.00 0.00 66 1011.8
20210916042601 20 198 0.0 0.0 0.00 0.00 0.00 66 1011.8
20210916042102 20 198 0.0 0.0 0.00 0.00 0.00 66 1011.9
20210916041601 20 188 0.0 0.0 0.00 0.00 0.00 65 1012.0
20210916041102 20 172 0.0 0.0 0.00 0.00 0.00 65 1012.0
20210916040602 20 146 0.0 0.0 0.00 0.00 0.00 65 1012.0
20210916040133 20 146 0.0 0.0 0.00 0.00 0.00 64 1012.0
20210916040101 20 146 0.0 0.0 0.00 0.00 0.00 64 1012.0
20210916035601 20 180 0.0 0.0 0.00 0.00 0.00 64 1012.0
20210916035141 20 180 0.0 0.0 0.00 0.00 0.00 63 1012.0
20210916035101 20 180 0.0 0.0 0.00 0.00 0.00 63 1012.0
20210916034601 21 180 0.0 0.0 0.00 0.00 0.00 63 1012.0
20210916034101 21 180 0.0 0.0 0.00 0.00 0.00 62 1011.9
20210916033601 21 168 12.9 12.9 0.00 0.00 0.00 61 1011.9
20210916033101 21 158 0.0 0.0 0.00 0.00 0.00 61 1011.9
20210916032601 21 139 0.0 0.0 0.00 0.00 0.00 61 1011.8
20210916032102 21 151 0.0 0.0 0.00 0.00 0.00 61 1011.8
20210916031601 21 151 0.0 0.0 0.00 0.00 0.00 60 1011.7
20210916031102 21 153 12.9 19.3 0.00 0.00 0.00 60 1011.7
20210916030607 21 175 0.0 11.3 0.00 0.00 0.00 60 1011.7
20210916030105 21 146 0.0 9.7 0.00 0.00 0.00 59 1011.6
20210916025604 21 115 0.0 12.9 0.00 0.00 0.00 59 1011.5
20210916025138 21 151 0.0 14.5 0.00 0.00 0.00 58 1011.5
20210916025104 21 151 0.0 14.5 0.00 0.00 0.00 58 1011.5
20210916024651 21 167 11.3 20.9 0.00 0.00 0.00 58 1011.4
20210916024604 21 167 11.3 20.9 0.00 0.00 0.00 58 1011.4
20210916024104 21 195 0.0 4.8 0.00 0.00 0.00 58 1011.4
20210916023605 21 170 0.0 8.0 0.00 0.00 0.00 59 1011.4
20210916023105 21 158 0.0 4.8 0.00 0.00 0.00 58 1011.2
20210916022604 21 146 0.0 12.9 0.00 0.00 0.00 58 1011.4
20210916022139 21 165 0.0 9.7 0.00 0.00 0.00 58 1011.2
20210916022105 21 165 0.0 9.7 0.00 0.00 0.00 58 1011.2
20210916021604 21 158 0.0 12.9 0.00 0.00 0.00 58 1011.2
20210916021104 21 160 0.0 0.0 0.00 0.00 0.00 58 1011.1
20210916020605 21 161 0.0 8.0 0.00 0.00 0.00 57 1011.1
20210916020104 21 172 12.9 12.9 0.00 0.00 0.00 56 1011.1
20210916015604 21 165 0.0 14.5 0.00 0.00 0.00 57 1011.1
20210916015107 21 174 6.4 6.4 0.00 0.00 0.00 56 1011.0
20210916014604 21 158 0.0 0.0 0.00 0.00 0.00 56 1011.0
20210916014138 21 178 0.0 12.9 0.00 0.00 0.00 56 1011.1
20210916014104 21 178 0.0 12.9 0.00 0.00 0.00 56 1011.1
20210916013604 21 185 0.0 0.0 0.00 0.00 0.00 56 1011.1
20210916013105 21 185 0.0 0.0 0.00 0.00 0.00 56 1011.1
20210916012604 21 185 0.0 0.0 0.00 0.00 0.00 56 1011.1
20210916012104 21 185 0.0 0.0 0.00 0.00 0.00 56 1011.0
20210916011604 21 139 0.0 0.0 0.00 0.00 0.00 56 1011.0
20210916011104 21 132 0.0 8.0 0.00 0.00 0.00 57 1011.0
20210916010604 21 210 0.0 0.0 0.00 0.00 0.00 57 1010.9
20210916010104 21 210 0.0 0.0 0.00 0.00 0.00 56 1010.9
20210916005605 21 210 0.0 0.0 0.00 0.00 0.00 56 1010.9
20210916005104 22 210 0.0 0.0 0.00 0.00 0.00 56 1011.0
20210916004605 22 210 0.0 0.0 0.00 0.00 0.00 55 1010.8
20210916004104 22 210 0.0 0.0 0.00 0.00 0.00 55 1010.8
20210916003605 22 210 0.0 0.0 0.00 0.00 0.00 55 1010.8
20210916003104 22 210 0.0 0.0 0.00 0.00 0.00 55 1010.8
20210916002605 22 210 0.0 0.0 0.00 0.00 0.00 55 1010.7
20210916002105 22 210 0.0 0.0 0.00 0.00 0.00 54 1010.7
20210916001604 22 210 0.0 0.0 0.00 0.00 0.00 54 1010.7
20210916001104 22 210 0.0 0.0 0.00 0.00 0.00 53 1010.7
20210916000605 23 210 0.0 0.0 0.00 0.00 0.00 52 1010.6
20210916000105 23 210 0.0 0.0 0.00 0.00 0.00 52 1010.6
20210915235604 23 210 0.0 0.0 0.00 0.00 0.00 51 1010.5
20210915235104 23 210 0.0 0.0 0.00 0.00 0.00 50 1010.5
20210915234606 23 210 0.0 0.0 0.00 0.00 0.00 50 1010.6
20210915234104 24 210 0.0 0.0 0.00 0.00 0.00 49 1010.5
20210915233605 24 210 0.0 0.0 0.00 0.00 0.00 49 1010.5
20210915233104 24 210 0.0 0.0 0.00 0.00 0.00 48 1010.5
20210915232605 24 210 0.0 0.0 0.00 0.00 0.00 48 1010.6
20210915232104 24 210 0.0 4.8 0.00 0.00 0.00 47 1010.6
20210915231604 25 150 0.0 0.0 0.00 0.00 0.00 47 1010.8
20210915231142 25 150 0.0 9.7 0.00 0.00 0.00 46 1010.8
20210915231104 25 150 0.0 9.7 0.00 0.00 0.00 46 1010.8
20210915230604 25 127 0.0 8.0 0.00 0.00 0.00 45 1010.8
20210915230104 25 116 0.0 0.0 0.00 0.00 0.00 46 1010.9
20210915225606 25 116 0.0 0.0 0.00 0.00 0.00 45 1011.0
20210915225104 25 165 0.0 12.9 0.00 0.00 0.00 45 1011.0
20210915224604 25 205 6.4 11.3 0.00 0.00 0.00 44 1011.1
20210915224104 25 192 0.0 0.0 0.00 0.00 0.00 45 1011.1
20210915223636 25 195 9.7 11.3 0.00 0.00 0.00 44 1011.4
20210915223604 25 195 9.7 11.3 0.00 0.00 0.00 44 1011.4
20210915223105 25 137 0.0 20.9 0.00 0.00 0.00 44 1011.2
20210915222604 25 177 0.0 9.7 0.00 0.00 0.00 43 1011.4
20210915222106 25 184 0.0 0.0 0.00 0.00 0.00 44 1011.4
20210915221604 25 201 0.0 0.0 0.00 0.00 0.00 43 1011.4
20210915221141 25 205 6.4 6.4 0.00 0.00 0.00 45 1011.4
20210915221104 25 205 6.4 6.4 0.00 0.00 0.00 45 1011.4
20210915220609 25 230 6.4 11.3 0.00 0.00 0.00 44 1011.5
20210915220104 25 150 0.0 9.7 0.00 0.00 0.00 42 1011.6
20210915215604 25 187 0.0 12.9 0.00 0.00 0.00 43 1011.7
20210915215104 25 151 0.0 0.0 0.00 0.00 0.00 42 1011.8
20210915214604 25 156 0.0 0.0 0.00 0.00 0.00 43 1011.9
20210915214135 25 167 6.4 6.4 0.00 0.00 0.00 42 1011.9
20210915214104 25 167 6.4 6.4 0.00 0.00 0.00 42 1011.9
20210915213604 25 149 0.0 0.0 0.00 0.00 0.00 43 1011.9
20210915213105 25 192 0.0 17.7 0.00 0.00 0.00 42 1012.0
20210915212604 25 185 0.0 0.0 0.00 0.00 0.00 44 1012.0
20210915212105 25 127 0.0 0.0 0.00 0.00 0.00 42 1012.0
20210915211604 25 191 0.0 12.9 0.00 0.00 0.00 43 1012.1
20210915211104 25 157 0.0 0.0 0.00 0.00 0.00 42 1012.2
20210915210605 25 165 0.0 0.0 0.00 0.00 0.00 44 1012.2
20210915210231 26 165 0.0 11.3 0.00 0.00 0.00 44 1012.3
20210915210141 26 165 0.0 11.3 0.00 0.00 0.00 44 1012.3
20210915210104 26 165 0.0 11.3 0.00 0.00 0.00 44 1012.3
20210915205605 26 160 6.4 6.4 0.00 0.00 0.00 43 1012.4
20210915205104 26 146 0.0 11.3 0.00 0.00 0.00 43 1012.5
20210915204604 25 147 0.0 0.0 0.00 0.00 0.00 43 1012.6
20210915204104 25 157 0.0 0.0 0.00 0.00 0.00 43 1012.7
20210915203604 25 157 0.0 0.0 0.00 0.00 0.00 44 1012.7
20210915203104 25 157 0.0 20.9 0.00 0.00 0.00 40 1012.9
20210915202604 25 157 0.0 6.4 0.00 0.00 0.00 42 1013.0
20210915202104 25 157 0.0 0.0 0.00 0.00 0.00 38 1013.0
20210915201604 25 172 0.0 9.7 0.00 0.00 0.00 42 1013.1
20210915201104 25 233 0.0 6.4 0.00 0.00 0.00 41 1013.2
20210915200604 25 248 0.0 14.5 0.00 0.00 0.00 41 1013.2
20210915200105 25 149 8.0 9.7 0.00 0.00 0.00 43 1013.3
20210915195604 25 158 0.0 11.3 0.00 0.00 0.00 43 1013.3
20210915195104 25 177 0.0 12.9 0.00 0.00 0.00 42 1013.5
20210915194604 25 226 0.0 14.5 0.00 0.00 0.00 42 1013.6
20210915194104 25 127 0.0 16.1 0.00 0.00 0.00 42 1013.7
20210915193604 25 257 0.0 11.3 0.00 0.00 0.00 42 1013.7
20210915193105 25 147 0.0 8.0 0.00 0.00 0.00 40 1013.8
20210915192604 25 255 0.0 12.9 0.00 0.00 0.00 40 1013.8
20210915192104 25 177 0.0 0.0 0.00 0.00 0.00 40 1013.9
20210915191604 25 260 0.0 0.0 0.00 0.00 0.00 42 1013.9
20210915191104 25 265 6.4 14.5 0.00 0.00 0.00 41 1014.0
20210915190604 25 192 0.0 9.7 0.00 0.00 0.00 41 1014.1
20210915190104 25 205 0.0 9.7 0.00 0.00 0.00 39 1014.2
20210915185604 25 226 0.0 17.7 0.00 0.00 0.00 42 1014.4
20210915185146 25 167 0.0 9.7 0.00 0.00 0.00 42 1014.4
20210915185104 25 167 0.0 9.7 0.00 0.00 0.00 42 1014.4
20210915184604 25 153 0.0 4.8 0.00 0.00 0.00 44 1014.5
20210915184104 24 187 4.8 16.1 0.00 0.00 0.00 42 1014.5
20210915183604 24 164 12.9 24.1 0.00 0.00 0.00 42 1014.6
20210915183104 24 181 0.0 9.7 0.00 0.00 0.00 43 1014.6
20210915182604 25 191 0.0 12.9 0.00 0.00 0.00 42 1014.7
20210915182104 25 161 0.0 17.7 0.00 0.00 0.00 43 1014.8
20210915181604 25 226 0.0 9.7 0.00 0.00 0.00 44 1014.8
20210915181104 25 212 0.0 17.7 0.00 0.00 0.00 43 1015.0
20210915180604 24 208 4.8 9.7 0.00 0.00 0.00 45 1014.8
20210915180104 24 223 6.4 20.9 0.00 0.00 0.00 45 1015.0
20210915175604 24 182 4.8 8.0 0.00 0.00 0.00 46 1015.0
20210915175104 24 210 4.8 4.8 0.00 0.00 0.00 49 1015.1
20210915174604 23 198 0.0 0.0 0.00 0.00 0.00 53 1015.2
20210915174105 23 143 6.4 14.5 0.00 0.00 0.00 52 1015.3
20210915173604 23 137 0.0 0.0 0.00 0.00 0.00 57 1015.3
20210915173104 23 163 0.0 6.4 0.00 0.00 0.00 56 1015.4
20210915172604 23 188 0.0 3.2 0.00 0.00 0.00 58 1015.4
20210915172104 23 136 6.4 12.9 0.00 0.00 0.00 58 1015.5
20210915171604 23 161 0.0 0.0 0.00 0.00 0.00 61 1015.6
20210915171104 22 219 0.0 8.0 0.00 0.00 0.00 61 1015.7
20210915170605 22 184 0.0 19.3 0.00 0.00 0.00 61 1015.7
20210915170104 22 182 0.0 0.0 0.00 0.00 0.00 61 1015.7
20210915165604 22 136 11.3 16.1 0.00 0.00 0.00 61 1015.8
20210915165146 22 227 6.4 6.4 0.00 0.00 0.00 63 1015.9
20210915165104 22 227 6.4 6.4 0.00 0.00 0.00 63 1015.9
20210915164604 22 180 0.0 0.0 0.00 0.00 0.00 62 1015.8
20210915164104 22 158 0.0 9.7 0.00 0.00 0.00 61 1015.9
20210915163604 21 182 6.4 8.0 0.00 0.00 0.00 63 1015.9
20210915163104 21 180 3.2 3.2 0.00 0.00 0.00 61 1016.0
20210915162604 21 180 0.0 8.0 0.00 0.00 0.00 64 1016.1
20210915162140 21 198 0.0 0.0 0.00 0.00 0.00 66 1016.1
20210915162104 21 198 0.0 0.0 0.00 0.00 0.00 66 1016.1
20210915161604 21 198 0.0 0.0 0.00 0.00 0.00 65 1016.1
20210915161104 21 198 0.0 0.0 0.00 0.00 0.00 65 1016.2
20210915160603 20 135 8.0 11.3 0.00 0.00 0.00 64 1016.3
20210915160136 20 165 0.0 0.0 0.00 0.00 0.00 69 1016.4
20210915160103 20 165 0.0 0.0 0.00 0.00 0.00 69 1016.4
20210915155603 20 165 0.0 0.0 0.00 0.00 0.00 69 1016.5
20210915155137 20 165 0.0 0.0 0.00 0.00 0.00 69 1016.4
20210915155104 20 165 0.0 0.0 0.00 0.00 0.00 69 1016.4
20210915154604 20 209 0.0 0.0 0.00 0.00 0.00 68 1016.5
20210915154137 19 262 0.0 0.0 0.00 0.00 0.00 68 1016.5
20210915154104 19 262 0.0 0.0 0.00 0.00 0.00 68 1016.5
20210915153604 19 146 0.0 0.0 0.00 0.00 0.00 70 1016.5
20210915153104 18 209 0.0 0.0 0.00 0.00 0.00 72 1016.6
20210915152603 18 209 0.0 0.0 0.00 0.00 0.00 71 1016.6
20210915152104 18 215 0.0 3.2 0.00 0.00 0.00 71 1016.6
20210915151605 18 244 0.0 3.2 0.00 0.00 0.00 72 1016.5
20210915151107 17 250 8.0 9.7 0.00 0.00 0.00 70 1016.5
20210915150604 17 248 0.0 0.0 0.00 0.00 0.00 75 1016.5
20210915150141 17 358 0.0 0.0 0.00 0.00 0.00 76 1016.5
20210915150103 17 358 0.0 0.0 0.00 0.00 0.00 76 1016.5
20210915145604 17 239 6.4 6.4 0.00 0.00 0.00 75 1016.5
20210915145104 16 188 0.0 0.0 0.00 0.00 0.00 76 1016.4
20210915144606 16 188 0.0 0.0 0.00 0.00 0.00 78 1016.4
20210915144104 16 268 0.0 11.3 0.00 0.00 0.00 78 1016.4
20210915143604 15 246 0.0 0.0 0.00 0.00 0.00 81 1016.4
20210915143104 15 239 6.4 8.0 0.00 0.00 0.00 82 1016.4
20210915142604 15 219 0.0 0.0 0.00 0.00 0.00 82 1016.3
20210915142105 15 219 0.0 0.0 0.00 0.00 0.00 83 1016.4
20210915141604 14 240 0.0 0.0 0.00 0.00 0.00 84 1016.2
20210915141105 14 243 6.4 9.7 0.00 0.00 0.00 84 1016.3
20210915140604 14 258 6.4 8.0 0.00 0.00 0.00 86 1016.2
20210915140105 13 196 0.0 6.4 0.00 0.00 0.00 87 1016.3
20210915135610 13 217 0.0 0.0 0.00 0.00 0.00 91 1016.3
20210915135136 13 234 0.0 0.0 0.00 0.00 0.00 95 1016.2
20210915135103 13 234 0.0 0.0 0.00 0.00 0.00 95 1016.2
20210915134603 12 234 0.0 0.0 0.00 0.00 0.00 99 1016.3
20210915134104 12 234 0.0 0.0 0.00 0.00 0.00 99 1016.3
20210915133604 12 234 0.0 0.0 0.00 0.00 0.00 99 1016.2
20210915133140 11 234 0.0 0.0 0.00 0.00 0.00 99 1016.3
20210915133104 11 234 0.0 0.0 0.00 0.00 0.00 99 1016.3
20210915132603 11 234 0.0 0.0 0.00 0.00 0.00 99 1016.3
20210915132103 11 234 0.0 0.0 0.00 0.00 0.00 99 1016.3
20210915131607 11 234 0.0 0.0 0.00 0.00 0.00 99 1016.1
20210915131106 10 234 0.0 0.0 0.00 0.00 0.00 99 1016.2
20210915130606 10 234 0.0 0.0 0.00 0.00 0.00 99 1016.2
20210915130103 10 234 0.0 0.0 0.00 0.00 0.00 99 1016.3
20210915125639 10 234 0.0 0.0 0.00 0.00 0.00 99 1016.2
20210915125604 10 234 0.0 0.0 0.00 0.00 0.00 99 1016.2
20210915125105 10 234 0.0 0.0 0.00 0.00 0.00 99 1016.2
20210915124607 9 234 0.0 0.0 0.00 0.00 0.00 99 1016.2
20210915124149 9 234 0.0 0.0 0.00 0.00 0.00 99 1016.2
20210915124103 9 234 0.0 0.0 0.00 0.00 0.00 99 1016.2
20210915123605 9 234 0.0 0.0 0.00 0.00 0.00 99 1016.1
20210915123104 8 234 0.0 0.0 0.00 0.00 0.00 99 1016.0
20210915122640 8 234 0.0 0.0 0.00 0.00 0.00 99 1016.0
20210915122607 8 234 0.0 0.0 0.00 0.00 0.00 99 1016.0
20210915122139 8 234 0.0 0.0 0.00 0.00 0.00 99 1015.9
20210915122103 8 234 0.0 0.0 0.00 0.00 0.00 99 1015.9
20210915121656 8 234 0.0 0.0 0.00 0.00 0.00 99 1015.9
20210915121603 8 234 0.0 0.0 0.00 0.00 0.00 99 1015.9
20210915121105 8 234 0.0 0.0 0.00 0.00 0.00 99 1015.8
20210915120707 8 234 0.0 0.0 0.00 0.00 0.00 99 1016.0
20210915120605 8 234 0.0 0.0 0.00 0.00 0.00 99 1016.0
20210915120104 8 234 0.0 0.0 0.00 0.00 0.00 99 1015.9
20210915115607 8 234 0.0 0.0 0.00 0.00 0.00 99 1015.8
20210915115142 8 234 0.0 0.0 0.00 0.00 0.00 99 1015.8
20210915115103 8 234 0.0 0.0 0.00 0.00 0.00 99 1015.8
20210915114604 8 234 0.0 0.0 0.00 0.00 0.00 99 1015.8
20210915114104 9 234 0.0 0.0 0.00 0.00 0.00 99 1015.7
20210915113604 9 234 0.0 0.0 0.00 0.00 0.00 99 1015.6
20210915113229 9 234 0.0 0.0 0.00 0.00 0.00 99 1015.6
20210915113103 9 234 0.0 0.0 0.00 0.00 0.00 99 1015.6
20210915112605 9 234 0.0 0.0 0.00 0.00 0.00 99 1015.8
20210915112106 9 234 0.0 0.0 0.00 0.00 0.00 99 1015.6
20210915111604 9 234 0.0 0.0 0.00 0.00 0.00 99 1015.5
20210915111103 9 234 0.0 0.0 0.00 0.00 0.00 99 1015.4
20210915110606 9 234 0.0 0.0 0.00 0.00 0.00 99 1015.4
20210915110105 9 234 0.0 0.0 0.00 0.00 0.00 99 1015.4
20210915105603 9 234 0.0 0.0 0.00 0.00 0.00 99 1015.5
20210915105137 9 234 0.0 0.0 0.00 0.00 0.00 99 1015.5